Latest Coastal Weather Observations for Port Fairy

IDV60701

Issued at 3:25 am EDT Tuesday 25 November 2014 (issued every 10 minutes, with the page automatically refreshed every 10 minutes)

About coastal observations | Map of coastal stations | Coastal observations for VIC | Marine services | Other Formats
Station Details ID: 090175 Name: PORT FAIRY AWS Lat: -38.39 Lon: 142.23 Height: 10.0 m
Data from the previous 72 hours. | See also: Recent months at Port Fairy
Date/Time
EDT
Temp

°C
Wind Pressure Rain
since 9am
mm
Weather Cloud Vis
km
Sea
Height
m
Swell
Dir
 
Speed
knots
Gust
knots
hPa Trend Height
m
Period
s
Dir
25/03:00am 13.5 WSW 20 27 1015.1 - 0.8 - - - - - - -
25/02:30am 13.4 W 18 25 1015.0 - 0.8 - - - - - - -
25/02:08am 13.2 W 15 27 1015.0 - 0.8 - - - - - - -
25/02:00am 12.9 W 16 23 1015.0 - 0.8 - - - - - - -
25/01:31am 14.0 W 18 28 1014.9 - 0.6 - - - - - - -
25/01:30am 13.8 W 17 25 1014.8 - 0.6 - - - - - - -
25/01:00am 13.7 W 18 25 1014.7 - 0.6 - - - - - - -
25/12:30am 13.6 W 17 23 1014.6 - 0.6 - - - - - - -
25/12:00am 13.8 W 18 25 1014.5 - 0.6 - - - - - - -
 
Date/Time
EDT
Temp

°C
Wind Pressure Rain
since 9am
mm
Weather Cloud Vis
km
Sea
Height
m
Swell
Dir
 
Speed
knots
Gust
knots
hPa Trend Height
m
Period
s
Dir
24/11:30pm 13.2 W 18 26 1014.4 - 0.6 - - - - - - -
24/11:00pm 13.6 W 16 23 1014.2 - 0.6 - - - - - - -
24/10:30pm 13.4 W 14 22 1014.1 - 0.6 - - - - - - -
24/10:00pm 14.0 W 18 27 1013.9 - 0.6 - - - - - - -
24/09:50pm 14.1 W 16 26 1013.7 - 0.6 - - - - - - -
24/09:30pm 13.9 W 18 26 1013.5 - 0.6 - - - - - - -
24/09:00pm 14.1 W 19 27 1013.3 - 0.6 - - - - - - -
24/08:30pm 14.2 W 18 24 1013.0 - 0.6 - - - - - - -
24/08:00pm 14.7 WSW 20 27 1012.5 - 0.6 - - - - - - -
24/07:30pm 15.3 WSW 20 28 1011.9 - 0.6 - - - - - - -
24/07:00pm 15.7 W 21 30 1011.2 - 0.6 - - - - - - -
24/06:52pm 16.0 WSW 21 31 1011.0 - 0.6 - - - - - - -
24/06:30pm 15.4 WSW 22 29 1010.6 - 0.6 - - - - - - -
24/06:00pm 15.4 WSW 22 28 1010.3 - 0.6 - - - - - - -
24/05:30pm 16.6 WSW 21 28 1010.1 - 0.6 - - - - - - -
24/05:00pm 16.2 WSW 21 26 1010.0 - 0.6 - - - - - - -
24/04:30pm 16.0 WSW 20 26 1009.8 - 0.6 - - - - - - -
24/04:00pm 15.6 W 13 19 1009.8 - 0.6 - - - - - - -
24/03:30pm 14.6 WSW 13 16 1009.8 - 0.6 - - - - - - -
24/03:00pm 13.0 W 16 23 1010.0 - 0.6 Recent precip. - - - - - -
24/02:30pm 13.2 WSW 22 29 1009.9 - 0.6 - - - - - - -
24/02:00pm 14.4 SW 21 28 1009.6 - 0.4 - - - - - - -
24/01:49pm 15.9 WSW 18 27 1009.4 - 0.4 - - - - - - -
24/01:30pm 18.4 WSW 11 14 1009.1 - 0.4 - - - - - - -
24/01:00pm 18.0 WSW 11 14 1009.0 - 0.4 - - - - - - -
24/12:30pm 17.8 WSW 8 12 1008.9 - 0.4 - - - - - - -
24/12:00pm 16.8 W 4 6 1008.9 - 0.4 - - - - - - -
24/11:30am 16.2 W 4 5 1009.1 - 0.4 - - - - - - -
24/11:00am 16.1 W 4 5 1009.1 - 0.4 - - - - - - -
24/10:30am 16.4 WSW 5 8 1008.7 - 0.4 - - - - - - -
24/10:00am 16.1 ENE 1 3 1008.6 - 0.0 - - - - - - -
24/09:30am 15.6 CALM 0 0 1008.9 - 0.0 - - - - - - -
24/09:00am 15.3 SSW 1 3 1008.6 - 1.0 - - - - - - -
24/08:30am 14.9 CALM 0 0 1008.6 - 1.0 - - - - - - -
24/08:00am 14.4 NE 5 7 1009.2 - 1.0 - - - - - - -
24/07:30am 15.3 ENE 5 7 1008.6 - 0.0 - - - - - - -
24/07:00am 15.1 ENE 4 7 1008.9 - 0.0 - - - - - - -
24/06:30am 14.8 NE 5 10 1008.6 - 0.0 - - - - - - -
24/06:00am 14.6 NNE 5 7 1008.5 - 0.0 - - - - - - -
24/05:30am 15.5 ENE 4 8 1008.4 - 0.0 - - - - - - -
24/05:00am 15.6 ENE 7 12 1007.9 - 0.0 - - - - - - -
24/04:30am 15.5 ENE 7 11 1008.1 - 0.0 - - - - - - -
24/04:00am 15.3 E 6 9 1008.7 - 0.0 - - - - - - -
24/03:30am 15.4 ENE 6 10 1008.7 - 0.0 - - - - - - -
24/03:00am 15.2 ENE 5 7 1009.2 - 0.0 - - - - - - -
24/02:30am 14.8 ENE 4 7 1009.8 - 0.0 - - - - - - -
24/02:00am 15.5 E 3 5 1010.1 - 0.0 - - - - - - -
24/01:30am 15.4 ENE 3 4 1011.1 - 0.0 - - - - - - -
24/01:00am 15.4 ENE 3 5 1011.2 - 0.0 - - - - - - -
24/12:30am 15.2 ENE 2 4 1012.0 - 0.0 - - - - - - -
24/12:00am 15.4 ENE 3 6 1012.3 - 0.0 - - - - - - -
 
Date/Time
EDT
Temp

°C
Wind Pressure Rain
since 9am
mm
Weather Cloud Vis
km
Sea
Height
m
Swell
Dir
 
Speed
knots
Gust
knots
hPa Trend Height
m
Period
s
Dir
23/11:30pm 15.5 ENE 5 7 1012.5 - 0.0 - - - - - - -
23/11:00pm 15.7 ENE 6 10 1012.7 - 0.0 - - - - - - -
23/10:30pm 15.7 E 3 5 1013.2 - 0.0 - - - - - - -
23/10:00pm 15.4 E 4 5 1012.9 - 0.0 - - - - - - -
23/09:30pm 15.4 E 4 6 1012.4 - 0.0 - - - - - - -
23/09:00pm 15.4 ESE 3 4 1013.0 - 0.0 - - - - - - -
23/08:30pm 16.0 SE 4 6 1012.6 - 0.0 - - - - - - -
23/08:00pm 16.4 SE 4 6 1012.4 - 0.0 - - - - - - -
23/07:30pm 16.8 SE 5 7 1012.2 - 0.0 - - - - - - -
23/07:00pm 18.1 SSE 7 9 1011.4 - 0.0 - - - - - - -
23/06:30pm 17.9 SSE 7 8 1011.9 - 0.0 - - - - - - -
23/06:00pm 17.9 S 6 8 1012.5 - 0.0 - - - - - - -
23/05:30pm 17.3 S 6 7 1012.8 - 0.0 - - - - - - -
23/05:00pm 17.7 S 6 8 1012.6 - 0.0 - - - - - - -
23/04:30pm 17.5 S 6 8 1012.3 - 0.0 - - - - - - -
23/04:00pm 18.1 S 6 8 1012.4 - 0.0 - - - - - - -
23/03:30pm 18.1 S 6 8 1012.4 - 0.0 - - - - - - -
23/03:00pm 18.5 S 8 10 1012.3 - 0.0 - - - - - - -
23/02:30pm 19.2 S 7 9 1012.3 - 0.0 - - - - - - -
23/02:00pm 19.3 S 8 10 1012.4 - 0.0 - - - - - - -
23/01:30pm 18.7 S 7 9 1012.3 - 0.0 - - - - - - -
23/01:00pm 18.7 S 7 10 1012.1 - 0.0 - - - - - - -
23/12:30pm 18.7 S 7 10 1012.1 - 0.0 - - - - - - -
23/12:00pm 18.2 S 6 8 1012.5 - 0.0 - - - - - - -
23/11:30am 18.2 S 6 8 1012.6 - 0.0 - - - - - - -
23/11:00am 17.9 S 5 6 1012.7 - 0.0 - - - - - - -
23/10:30am 18.1 S 4 6 1013.0 - 0.0 - - - - - - -
23/10:00am 17.2 NNW 2 4 1013.2 - 0.0 - - - - - - -
23/09:30am 16.1 N 3 6 1013.3 - 0.0 - - - - - - -
23/09:00am 14.6 NNW 6 9 1013.3 - 0.0 - - - - - - -
23/08:30am 13.4 NNW 5 8 1012.9 - 0.0 - - - - - - -
23/08:00am 12.5 N 5 8 1012.6 - 0.0 - - - - - - -
23/07:30am 11.0 NNW 4 6 1012.2 - 0.0 - - - - - - -
23/07:00am 9.9 NNW 5 7 1011.9 - 0.0 - - - - - - -
23/06:30am 9.0 N 4 6 1011.7 - 0.0 - - - - - - -
23/06:00am 9.2 NNW 3 4 1011.2 - 0.0 - - - - - - -
23/05:30am 9.3 NNW 3 5 1010.9 - 0.0 - - - - - - -
23/05:00am 9.8 N 4 5 1010.6 - 0.0 - - - - - - -
23/04:30am 10.1 N 3 3 1010.5 - 0.0 - - - - - - -
23/04:00am 11.2 NNW 3 4 1010.3 - 0.0 - - - - - - -
23/03:30am 11.6 NW 3 5 1010.4 - 0.0 - - - - - - -
23/03:00am 11.9 NW 3 4 1010.5 - 0.0 - - - - - - -
23/02:30am 12.2 NNW 2 4 1010.5 - 0.0 - - - - - - -
23/02:00am 11.5 NW 3 4 1010.7 - 0.0 - - - - - - -
23/01:30am 12.2 NNW 2 4 1010.7 - 0.0 - - - - - - -
23/01:00am 13.3 NW 3 4 1010.6 - 0.0 - - - - - - -
23/12:30am 14.2 W 5 7 1010.6 - 0.0 - - - - - - -
23/12:00am 14.8 W 8 11 1010.5 - 0.0 - - - - - - -
 
Date/Time
EDT
Temp

°C
Wind Pressure Rain
since 9am
mm
Weather Cloud Vis
km
Sea
Height
m
Swell
Dir
 
Speed
knots
Gust
knots
hPa Trend Height
m
Period
s
Dir
22/11:30pm 14.9 WSW 9 11 1010.4 - 0.0 - - - - - - -
22/11:00pm 15.0 W 6 9 1010.3 - 0.0 - - - - - - -
22/10:30pm 15.3 WSW 8 11 1010.2 - 0.0 - - - - - - -
22/10:00pm 15.8 W 6 8 1009.8 - 0.0 - - - - - - -
22/09:30pm 16.1 WSW 10 13 1009.2 - 0.0 - - - - - - -
22/09:00pm 16.4 W 9 12 1008.7 - 0.0 - - - - - - -
22/08:30pm 16.6 WSW 9 12 1007.9 - 0.0 - - - - - - -
22/08:00pm 16.9 WSW 14 17 1007.2 - 0.0 - - - - - - -
22/07:30pm 17.5 WSW 16 20 1006.4 - 0.0 - - - - - - -
22/07:00pm 17.7 WSW 19 25 1006.0 - 0.0 - - - - - - -
22/06:30pm 18.4 WSW 21 28 1005.5 - 0.0 - - - - - - -
22/06:00pm 19.4 WSW 21 26 1005.1 - 0.0 - - - - - - -
22/05:30pm 20.4 WSW 20 25 1004.5 - 0.0 - - - - - - -
22/05:00pm 21.6 WSW 13 23 1004.1 - 0.0 - - - - - - -
22/04:30pm 21.9 WSW 15 20 1004.1 - 0.0 - - - - - - -
22/04:00pm 22.4 WSW 16 21 1004.1 - 0.0 - - - - - - -
22/03:30pm 25.5 WSW 14 21 1004.0 - 0.0 - - - - - - -
22/03:29pm 25.9 WSW 15 21 1004.1 - 0.0 - - - - - - -
22/03:04pm 31.5 NNW 15 29 1003.6 - 0.0 - - - - - - -
22/03:00pm 31.3 NW 14 27 1003.6 - 0.0 - - - - - - -
22/02:30pm 30.7 NNW 17 29 1003.9 - 0.0 - - - - - - -
22/02:00pm 31.0 NNW 16 29 1004.0 - 0.0 - - - - - - -
22/01:30pm 31.1 NNW 18 30 1004.3 - 0.0 - - - - - - -
22/01:00pm 29.2 NNW 15 28 1004.8 - 0.0 - - - - - - -
22/12:58pm 29.0 NNW 15 28 1004.8 - 0.0 - - - - - - -
22/12:30pm 28.3 N 14 24 1005.1 - 0.0 - - - - - - -
22/12:14pm 28.3 N 15 27 1005.3 - 0.0 - - - - - - -
22/12:00pm 28.1 N 13 25 1005.6 - 0.0 - - - - - - -
22/11:30am 25.4 N 12 20 1006.0 - 0.0 - - - - - - -
22/11:00am 24.3 N 15 22 1006.7 - 0.0 - - - - - - -
22/10:30am 22.6 N 10 15 1006.7 - 0.0 - - - - - - -
22/10:00am 21.3 N 8 16 1007.6 - 0.0 - - - - - - -
22/09:30am 19.8 N 8 13 1008.0 - 0.0 - - - - - - -
22/09:00am 18.1 NNE 7 13 1007.3 - 0.6 - - - - - - -
22/08:30am 14.9 NE 4 5 1007.4 - 0.6 - - - - - - -
22/08:00am 14.0 NE 7 10 1007.3 - 0.6 - - - - - - -
22/07:30am 12.4 NE 4 7 1007.9 - 0.6 - - - - - - -
22/07:00am 12.1 NNE 7 15 1007.2 - 0.6 - - - - - - -
22/06:30am 12.0 NNE 4 7 1009.2 - 0.4 - - - - - - -
22/06:00am 12.4 NE 6 9 1009.2 - 0.2 Recent precip. - - - - - -
22/05:30am 12.9 N 4 9 1009.0 - 0.0 - - - - - - -
22/05:00am 12.2 E 2 4 1009.1 - 0.0 - - - - - - -
22/04:30am 12.2 ENE 1 2 1009.8 - 0.0 - - - - - - -
22/04:00am 12.2 W 4 6 1010.8 - 0.0 - - - - - - -
22/03:30am 12.1 N 1 2 1010.5 - 0.0 - - - - - - -

Other Formats:

Comma delimited format used in spreadsheet applications
http://www.bom.gov.au/fwo/IDV60701/IDV60701.94830.axf

JavaScript Object Notation format (JSON) in row-major order
http://www.bom.gov.au/fwo/IDV60701/IDV60701.94830.json